Theta_e
311 310 311 311 310 311 312 313 313 312 312 311 311 311 311 310 310 310 306 304 304 303 303 302 300 300 300 301 302 303 305 308 314 318 320 321 322 324 324 324 323 324 324 322
312 312 311 311 313 313 313 313 312 311 312 312 311 311 310 311 308 306 305 304 303 303 302 301 299 299 298 298 299 301 303 304 307 309 312 315 318 319 320 321 321 320 319 318
312 313 313 315 314 314 314 313 313 313 311 309 309 308 309 307 306 306 304 303 303 302 301 299 299 298 297 296 297 298 299 301 303 305 308 309 311 311 310 312 317 317 316 316
315 314 314 314 313 312 313 311 311 312 310 310 308 310 309 308 307 305 303 301 300 300 299 299 298 297 296 296 296 296 297 298 299 301 302 302 301 301 302 304 307 310 311 313
314 311 311 312 311 310 312 310 310 310 310 310 310 310 309 308 309 306 303 302 300 299 299 298 297 296 296 295 295 295 296 296 296 297 297 298 298 298 299 300 302 302 304 306
310 309 310 311 311 311 309 310 309 308 308 312 311 311 313 309 308 306 304 302 301 299 298 297 297 296 295 295 293 293 293 293 294 294 295 295 295 296 297 297 297 298 299 301
314 312 310 310 312 309 309 309 314 315 312 315 315 316 314 312 306 306 303 301 299 298 297 295 295 295 294 293 292 291 290 291 292 292 291 293 293 293 293 293 294 295 295 296
318 318 311 309 312 313 309 311 315 317 319 316 313 317 316 306 305 303 301 300 299 297 297 296 295 294 294 293 292 290 289 289 289 290 289 289 288 288 288 288 288 291 292 292
314 315 309 309 308 311 315 316 315 316 313 311 314 313 308 306 304 302 300 298 297 297 297 296 294 293 292 292 291 290 288 287 287 288 288 287 287 286 286 286 286 285 285 286
316 314 315 310 311 310 314 313 315 315 313 312 312 311 310 309 306 303 299 298 296 295 295 295 294 292 291 291 290 289 288 287 286 286 286 286 286 286 285 284 284 284 285 284
315 315 313 313 313 314 308 311 313 314 314 315 310 309 310 310 306 303 299 298 296 295 294 292 293 291 290 289 288 288 287 287 286 286 285 285 285 285 285 284 284 284 284 284
314 313 309 313 311 309 309 311 310 315 313 311 313 313 307 306 303 300 300 298 295 293 290 290 291 292 291 289 288 287 287 287 286 286 285 285 285 284 284 284 284 284 284 284
312 310 302 304 303 309 312 312 312 312 311 310 310 309 303 301 302 300 299 297 295 292 290 289 289 289 289 289 289 288 287 287 286 286 286 285 285 285 284 284 284 284 283 283
309 310 303 305 302 307 306 306 305 308 307 303 306 305 303 301 302 300 300 296 293 289 288 287 287 288 289 289 288 289 288 288 287 286 286 285 285 284 284 283 283 282 282 282
306 303 306 305 304 302 302 303 303 302 303 302 302 301 300 300 297 295 292 293 293 292 288 287 287 287 288 288 288 288 288 288 288 288 287 286 285 284 283 283 282 282 281 281
303 297 298 293 300 300 300 300 298 298 298 299 299 301 299 295 294 293 291 290 289 289 289 289 287 288 288 289 289 289 288 288 288 286 285 285 284 283 282 282 281 281 281 280
300 296 289 292 297 293 291 295 296 297 297 297 297 296 291 292 293 290 290 290 290 290 290 289 288 288 288 288 288 287 287 286 285 284 284 282 282 281 281 281 281 280 280 279
297 293 288 287 285 290 292 293 293 294 294 291 289 286 287 289 289 289 289 289 289 289 288 287 288 288 288 287 286 285 284 284 282 281 280 279 279 279 278 278 277 277 277 277
296 296 287 288 282 288 293 292 291 290 289 287 287 289 290 289 289 288 289 289 289 288 288 288 288 287 286 285 284 283 281 279 278 277 277 277 275 274 273 272 272 272 272 272
292 295 293 276 288 287 289 290 290 289 289 285 283 287 288 288 285 286 287 288 288 289 288 287 285 284 283 281 280 278 277 276 275 275 274 272 270 270 269 268 267 267 268 268
282 281 293 293 289 287 289 288 289 287 289 283 286 288 288 287 286 287 287 287 288 288 286 284 283 281 279 278 276 274 273 273 272 271 269 268 267 266 265 265 265 265 265 265
289 285 283 278 280 288 288 290 290 289 292 290 290 288 288 288 287 287 287 286 286 284 283 281 279 277 276 275 273 271 271 270 269 268 266 266 265 264 264 263 263 263 263 263
288 288 285 288 287 289 287 289 289 289 287 289 289 288 288 288 287 286 286 285 283 283 281 278 277 275 273 272 270 269 268 267 266 265 265 264 264 264 263 263 262 263 263 263
288 288 288 287 289 289 289 288 288 288 288 288 288 287 286 287 287 286 285 284 282 279 277 276 274 272 271 270 268 267 267 266 264 264 264 263 263 263 263 263 262 263 263 263
289 288 288 289 289 289 288 288 288 288 287 287 286 286 286 285 285 285 283 279 279 277 274 273 271 270 269 267 266 266 266 265 264 263 263 263 263 263 262 262 262 263 263 264
291 291 290 290 290 289 290 289 288 288 287 287 287 286 285 284 283 280 278 277 275 273 272 270 269 267 266 265 266 266 265 264 263 263 263 262 263 263 262 262 262 263 264 266
Wind_Speed
2 4 6 11 9 3 3 4 5 5 9 6 9 7 12 12 10 13 7 12 12 12 14 22 26 33 35 33 32 31 32 26 16 5 3 7 8 12 15 14 18 17 21 25
3 6 11 5 5 4 2 4 7 6 4 2 6 12 14 16 5 6 13 11 10 9 11 19 26 32 34 33 33 32 31 29 25 19 12 6 1 3 7 11 13 16 18 21
7 7 6 5 4 4 5 5 5 8 3 5 5 7 7 5 11 13 11 11 10 10 12 13 22 25 29 33 34 34 30 28 27 22 15 13 9 9 10 5 5 9 13 16
6 5 7 4 4 6 4 3 6 4 3 3 4 5 6 7 7 6 7 7 8 10 12 13 18 21 26 30 32 34 33 32 28 24 23 23 23 18 16 16 6 5 7 8
5 7 4 3 7 7 7 2 1 2 3 3 4 1 7 8 3 4 6 9 9 9 10 11 15 20 25 28 29 30 31 32 31 30 26 23 23 21 18 17 13 11 6 7
5 1 5 8 4 3 3 2 4 2 3 2 5 6 5 5 7 7 7 9 9 7 7 12 16 19 22 22 25 27 29 29 28 28 29 28 25 22 20 19 20 19 16 10
3 4 3 2 2 4 4 3 3 3 1 5 1 0 7 5 7 14 13 9 7 6 7 7 9 14 17 21 21 23 26 26 24 24 25 24 24 24 25 24 21 19 18 16
4 6 3 1 3 5 5 5 4 5 3 4 6 5 3 8 15 14 10 8 7 6 6 6 11 15 16 18 20 21 23 24 24 23 23 23 22 21 21 21 21 20 20 19
4 4 0 2 1 4 3 3 3 3 0 2 4 3 4 7 11 10 9 8 7 6 5 5 10 13 14 16 17 18 20 21 22 22 22 22 20 20 19 18 19 19 20 21
4 2 3 3 2 2 3 4 3 2 2 4 5 5 4 6 11 9 8 7 6 5 6 5 8 11 11 11 10 11 15 18 19 19 20 19 20 20 20 20 18 18 18 20
4 3 4 5 4 7 1 2 1 2 4 4 2 5 0 6 11 10 6 7 7 6 6 6 8 10 10 8 7 8 8 10 13 13 15 16 17 19 20 22 23 24 24 23
3 4 3 8 3 2 5 5 6 3 4 3 1 8 4 6 9 9 8 8 8 7 7 6 8 9 7 6 6 6 6 7 9 9 10 11 12 15 19 20 21 25 26 25
4 1 2 9 4 4 1 0 3 2 2 4 3 8 4 6 7 8 8 7 6 6 6 7 10 8 7 4 3 3 4 3 9 12 14 16 17 18 20 24 25 27 26 26
3 3 6 8 4 3 3 6 1 3 2 3 10 11 19 18 4 6 8 7 7 7 8 6 7 8 6 4 2 2 4 6 8 10 15 20 23 23 24 26 26 26 27 28
4 4 3 3 0 3 5 10 13 6 11 8 20 17 19 14 4 2 5 6 7 7 7 7 7 10 10 8 7 7 8 10 12 15 20 27 30 32 32 31 31 32 31 30
2 2 2 4 4 5 10 18 12 15 15 16 19 21 15 2 4 4 6 6 5 5 4 3 7 12 14 15 15 13 12 11 10 12 19 28 30 33 36 39 40 36 32 30
6 5 3 6 1 5 8 13 17 10 12 7 8 9 2 4 4 5 4 3 4 5 4 4 4 4 7 10 6 4 3 5 10 19 26 27 29 32 33 35 35 33 34 37
5 6 4 4 3 2 9 3 5 9 8 4 1 4 6 5 4 3 3 1 1 3 4 5 6 5 2 4 3 3 8 14 20 21 22 24 23 24 29 33 33 36 35 36
6 6 1 4 5 5 13 6 6 6 8 5 5 4 6 4 2 3 1 4 4 5 9 6 4 7 7 3 4 9 14 18 19 21 19 18 25 29 29 30 31 33 34 37
8 5 5 2 5 9 6 3 5 5 8 8 5 6 8 5 2 4 6 7 8 11 6 9 10 6 3 3 8 13 14 16 18 17 22 26 24 25 28 29 31 31 31 35
3 2 15 15 6 7 6 6 4 5 8 3 5 6 7 4 6 5 5 7 10 8 11 8 4 4 2 6 10 13 12 14 16 23 23 23 26 31 30 30 28 30 31 32
7 7 4 2 1 8 7 4 7 6 3 5 5 6 6 7 8 6 8 7 9 12 9 5 5 2 4 8 10 11 11 14 21 21 25 30 32 31 28 30 31 28 28 30
1 7 5 10 7 5 6 7 9 5 6 6 7 9 9 10 7 8 7 7 10 11 8 4 2 1 4 8 11 14 16 19 19 23 27 30 30 29 28 28 29 28 27 26
5 3 4 1 6 10 9 8 8 8 8 9 9 11 8 9 9 9 6 7 9 11 6 2 2 5 6 11 14 16 18 20 22 25 26 24 23 26 25 26 27 27 27 26
8 5 8 9 14 12 11 10 13 10 9 9 8 8 10 8 8 8 6 4 7 6 4 2 5 7 11 15 17 17 18 19 22 25 24 22 20 22 26 25 27 27 30 30
12 18 11 14 16 10 11 9 7 8 9 10 9 6 5 7 6 5 5 7 6 3 1 5 7 10 15 17 18 18 17 18 21 25 21 22 23 24 25 26 27 31 30 33
Wind_Direction
226 106 206 220 205 222 275 239 256 263 277 306 281 302 291 256 263 294 35 101 81 65 50 43 38 36 39 44 49 49 50 53 63 78 170 217 217 216 225 232 241 234 233 231
79 222 225 233 246 237 306 314 284 287 269 345 296 298 278 299 32 65 96 88 86 81 56 42 37 39 39 36 43 48 49 47 51 55 51 56 110 202 228 233 237 243 247 245
168 216 166 182 257 303 262 225 247 238 320 298 313 292 284 43 81 79 72 87 77 77 70 52 43 39 41 41 41 45 48 50 48 48 54 53 55 54 42 11 245 245 252 249
237 246 232 257 253 163 267 260 240 263 58 225 64 284 295 129 100 89 86 77 79 67 63 62 53 45 46 48 52 54 53 50 47 46 50 53 51 41 20 22 346 287 271 258
244 172 161 166 221 162 223 58 296 222 200 349 278 136 260 129 140 104 87 79 65 65 69 65 58 55 55 50 51 54 54 52 50 49 48 48 43 36 35 33 24 17 348 306
235 231 162 204 220 185 114 30 298 74 120 298 238 181 280 181 183 136 105 89 84 67 69 76 72 64 60 58 52 52 54 51 48 48 48 47 43 38 31 22 16 11 16 0
280 203 205 159 105 29 78 69 322 1 16 227 302 193 248 332 112 138 122 105 96 92 75 68 64 63 59 55 55 55 56 55 52 52 51 49 46 43 38 32 23 11 2 354
213 317 148 168 159 187 184 167 163 237 226 267 328 256 302 74 90 99 101 112 104 89 86 80 70 62 57 50 47 49 51 51 50 51 47 48 49 46 42 31 24 22 13 6
168 239 196 67 116 135 198 182 171 102 334 46 235 270 84 100 101 111 121 123 126 119 117 110 88 69 62 55 48 42 40 42 41 41 40 39 39 38 38 37 30 21 17 8
199 308 219 178 134 34 149 170 68 27 212 240 275 261 219 183 150 149 152 140 134 118 93 79 88 87 75 76 60 49 41 37 32 30 29 24 21 19 19 19 15 11 10 8
136 121 257 126 175 184 65 217 140 149 178 202 240 261 118 123 164 164 156 162 169 159 144 129 115 116 112 103 97 86 70 51 40 31 20 12 11 5 1 354 352 353 353 352
197 156 227 235 240 176 186 227 186 213 241 252 243 260 134 131 141 147 185 189 183 166 149 143 129 126 123 116 103 86 65 44 32 25 20 10 359 350 345 343 341 338 336 336
169 176 21 330 22 31 78 174 126 118 97 216 226 260 170 119 160 202 188 189 169 160 159 155 152 149 132 130 94 70 46 29 6 3 358 350 350 340 333 334 330 329 327 326
81 164 169 212 168 115 285 292 275 126 179 231 246 281 285 294 222 255 228 177 172 169 166 171 169 173 185 193 208 279 326 340 344 341 344 343 340 332 327 326 323 320 319 318
134 201 216 257 351 125 208 257 273 214 243 224 267 268 269 291 312 179 152 158 176 191 196 198 199 204 216 222 235 265 288 305 313 320 326 329 326 326 325 324 320 319 317 314
138 227 97 301 209 248 262 261 262 256 259 253 255 264 276 207 224 190 181 176 150 142 151 154 217 230 235 239 245 258 278 298 306 316 319 319 318 317 318 318 318 316 313 310
153 136 88 264 196 58 309 250 245 234 233 239 246 255 215 267 228 151 164 190 221 225 222 223 252 267 270 266 255 275 315 325 318 319 315 313 312 310 310 309 309 307 308 307
152 128 127 226 45 241 245 248 205 214 242 211 181 231 215 199 163 197 241 229 232 213 235 254 252 274 7 137 109 3 334 326 322 318 313 310 309 307 306 307 306 304 304 300
191 160 195 178 198 305 298 244 184 166 267 193 208 229 195 165 112 304 169 189 209 226 236 229 145 130 124 89 1 333 328 326 325 318 313 309 310 309 308 304 303 300 300 297
195 203 170 75 190 212 239 161 140 112 273 225 185 225 178 140 135 246 238 245 253 248 222 146 134 122 107 25 334 333 334 326 318 309 308 311 310 307 305 302 300 299 296 293
109 81 210 223 229 274 237 180 137 108 264 223 193 200 183 183 199 223 262 264 256 225 168 152 134 115 81 334 337 338 326 313 307 308 311 309 309 310 308 303 300 299 296 294
161 168 202 94 180 270 194 97 166 210 179 189 203 209 208 226 247 240 257 251 195 175 163 149 123 56 339 336 336 336 312 308 315 314 313 316 320 318 310 305 302 299 295 292
275 201 183 188 204 215 193 185 222 171 183 206 201 223 218 234 250 243 233 196 180 188 179 156 98 25 332 334 334 329 323 326 319 319 320 321 321 316 312 304 302 300 297 293
266 170 212 47 215 237 240 231 226 210 220 235 227 232 220 229 236 237 209 191 177 178 172 161 337 332 330 329 330 330 331 329 325 324 323 317 308 307 309 305 298 295 294 294
221 153 227 255 258 258 265 251 253 241 231 242 242 221 228 220 236 224 206 145 163 164 129 316 322 318 321 327 327 334 336 335 330 327 317 311 306 308 306 298 294 294 292 292
232 236 240 251 249 226 245 245 223 217 234 236 240 242 232 210 203 151 146 157 161 161 303 300 308 317 318 323 327 335 340 338 332 320 314 310 311 311 304 300 299 303 301 302